Regional Weather Roundup
Issued by NWS

Home | Current Version | Previous Version | Text Only | Print | Product List | Glossary On
Versions: 1 2 3 4 5 6 7 8 9 10 11 12 13 14 15 16 17 18 19 20 21 22 23 24 25 26 27 28 29 30 31 32 33 34 35 36 37 38 39 40 41 42 43 44 45 46 47 48 49 50
000
ASUS46 KPQR 072010
RWROR

OREGON REGIONAL WEATHER ROUNDUP
NATIONAL WEATHER SERVICE PORTLAND OR
1200 PM PST WED DEC 07 2016

NOTE: "FAIR" INDICATES FEW OR NO CLOUDS BELOW 12,000 FEET WITH
NO SIGNIFICANT WEATHER AND/OR OBSTRUCTIONS TO VISIBILITY.

ORZ001>013-072100-
NORTHWEST OREGON


CITY           SKY/WX    TMP DP  RH WIND       PRES   REMARKS
ASTORIA        SUNNY     40  27  59 E18       30.29F WCI  31
NEWPORT        PTSUNNY   36  30  80 E21       30.23F WCI  24
PORTLAND       MOSUNNY   40  23  50 E23G31    30.33F WCI  30
VANCOUVER WA   SUNNY     40  23  50 E12G24    30.33F WCI  33
SCAPPOOSE      SUNNY     39  27  62 NE7       30.34F WCI  34
HILLSBORO      SUNNY     37  28  70 NE12      30.32F WCI  29
AURORA         SUNNY     40  25  55 NE12      30.29F WCI  33
MCMINNVILLE    MOSUNNY   38  28  67 N9        30.31F WCI  31
SALEM          MOSUNNY   34  26  72 NE7       30.29F WCI  28
CORVALLIS        N/A     32  27  80 NE7       30.28F WCI  26
EUGENE         CLOUDY    33  28  81 NE13      30.26F WCI  24
$$

ORZ021-028-072100-
SOUTHWEST OREGON


CITY           SKY/WX    TMP DP  RH WIND       PRES   REMARKS
NORTH BEND     CLOUDY    41  28  60 E12       30.17F
BROOKINGS      CLOUDY    44  24  45 E8        30.09F
ROSEBURG       PTSUNNY   35  28  75 CALM      30.21F
SEXTON SUMMIT  CLOUDY    23  20  88 SE14G22   30.02F WCI  11
MEDFORD        PTSUNNY   34  25  69 NE8       30.18F WCI  27
$$

ORZ014>016-041-072100-
COLUMBIA GORGE


CITY           SKY/WX    TMP DP  RH WIND       PRES   REMARKS
TROUTDALE      SUNNY     37  25  61 E21G26    30.34F WCI  26
THE DALLES     PTSUNNY   35  22  58 SE10      30.49F WCI  27
$$

ORZ029>031-041-044-049-050-061>064-502-503-505>511-072100-
EASTERN OREGON


CITY           SKY/WX    TMP DP  RH WIND       PRES   REMARKS
REDMOND        SUNNY     24  11  57 VRB3      30.26F
BEND           SUNNY     21  14  73 E6        30.23F WCI  14
PRINEVILLE     MOSUNNY   25  12  58 SE9       30.25F WCI  15
KLAMATH FALLS  PTSUNNY   24  16  71 E5        30.15F WCI  18
LAKEVIEW       MOSUNNY   23   9  54 CALM      30.16F
HERMISTON      SUNNY     31  21  66 NE8       30.48F WCI  23
PENDLETON      SUNNY     24  15  68 CALM      30.42F
JOHN DAY       SUNNY     21  11  64 E7        30.27F WCI  12
MEACHAM        SUNNY     19  12  74 CALM      30.27F
LA GRANDE      SUNNY     19   7  58 CALM      30.37S
BAKER CITY     SUNNY     16   8  71 W3        30.33F
BURNS          MOSUNNY   21   9  59 CALM      30.26F
ROME             N/A     26  11  52 E7        30.25F WCI  18
ONTARIO        MOSUNNY   24  18  77 VRB5      30.43F WCI  18
$$



USA.gov is the U.S. government's official web portal to all federal, state and local government web resources and services.